Regional Weather Roundup
Issued by NWS Albany, NY

Home | Current Version | Previous Version | Text Only | Print | Product List | Glossary On
Versions: 1 2 3 4 5 6 7 8 9 10 11 12 13 14 15 16 17 18 19 20 21 22 23 24 25 26 27 28
000
ASUS41 KALY 170110
RWRALY

NEW YORK STATE HOURLY WEATHER ROUNDUP
NATIONAL WEATHER SERVICE ALBANY NY
900 PM EDT MON OCT 16 2017

NOTE: "FAIR" INDICATES FEW OR NO CLOUDS BELOW 12,000 FEET WITH NO
SIGNIFICANT WEATHER AND/OR NO OBSTRUCTIONS TO VISIBILITY.

NYZ032-033-038>043-046>054-057>066-NYZ062>081-082-084-170200-
EAST


CITY           SKY/WX    TMP DP  RH WIND       PRES   REMARKS
ALBANY         PTCLDY    43  35  73 N7        30.20R
GLENS FALLS    CLOUDY    44  31  60 NW6       30.18R
POUGHKEEPSIE   PTCLDY    48  33  56 NW13      30.17R
NEWBURGH       CLEAR     46  36  66 NW14      30.19R
MONTGOMERY     CLEAR     46  33  60 NW12      30.18R
WHITE PLAINS   PTCLDY    49  35  58 NW16G22   30.15R
ISLIP          MOCLDY    52  36  54 N13G23    30.13R
NEW YORK CITY  PTCLDY    54  37  52 N14G23    30.16R
CENTRAL PARK   CLEAR     52  35  52 VRB5      30.19R
$$

NYZ005>009-017-018-044>046-055-056-170200-
CENTRAL


CITY           SKY/WX    TMP DP  RH WIND       PRES   REMARKS
FULTON         CLOUDY    44  33  65 NW3       30.23S
SYRACUSE       CLOUDY    43  34  70 W9        30.23R
ROME           CLOUDY    42  37  82 W9        30.24R
ELMIRA         CLEAR     41  34  76 CALM      30.24R
BINGHAMTON     PTCLDY    37  29  72 NW7       30.21R WCI  32
MONTICELLO     CLEAR     40  28  62 NW10      30.20R WCI  33
$$

NYZ026>034-041>043-087-170200-
NORTH


CITY           SKY/WX    TMP DP  RH WIND       PRES   REMARKS
WATERTOWN      CLEAR     33  33 100 CALM      30.24R
FORT DRUM      NOT AVBL
OGDENSBURG     FAIR      39  32  76 W6        30.22S WCI  35
MASSENA        CLEAR     40  33  76 W7        30.22R
SARANAC LAKE   MOCLDY    35  28  75 CALM      30.16R
PLATTSBURGH    CLOUDY    43  32  65 W5        30.18R
$$

NYZ001>004-010>016-019>021-085-170200-
WEST


CITY           SKY/WX    TMP DP  RH WIND       PRES   REMARKS
NIAGARA FALLS  CLEAR     41  32  70 CALM      30.26S
BUFFALO        CLEAR     44  32  62 CALM      30.26S
DUNKIRK        CLEAR     46  30  53 NW8       30.26S
JAMESTOWN      CLEAR     41  31  67 CALM      30.25S
WELLSVILLE     CLEAR     37  29  72 NW8       30.24S WCI  31
ROCHESTER      PTCLDY    39  36  89 W3        30.26S
$$

             KEY
       WCI = WIND CHILL INDEX
       VSB = VISIBILITY
       HX  = HEAT INDEX
$$




USA.gov is the U.S. government's official web portal to all federal, state and local government web resources and services.